This demonstration page uses our WeatherBlox Daily Observations layout. Learn more.

Left ArrowRight Arrow

31.84235, -102.49876

Hourly Observations for May 20, 2022

Temp ( °F °C ) Dew Point ( °F °C ) Humidity (%) Winds ( mph kmh ) Pressure ( in mb ) Visibility ( mi km ) Precip ( " mm )
12:53 am 00:53 Clear 81 27.2 17 -8.3 9 9 S 8 13 29.44 997 10 16 0.00 0.00
1:53 am 01:53 Clear 84 28.9 28 -2.2 13 13 S 14 22 29.45 997 10 16 0.00 0.00
2:53 am 02:53 Clear 79 26.1 55 12.8 44 44 SSW 13 20 29.44 997 10 16 0.00 0.00
3:53 am 03:53 Clear 78 25.6 56 13.3 47 47 SSW 13 20 29.43 997 10 16 0.00 0.00
4:53 am 04:53 Clear 76 24.4 57 13.9 52 52 SSW 13 20 29.44 997 10 16 0.00 0.00
5:53 am 05:53 Clear 74 23.3 54 12.2 50 50 SSW 9 15 29.45 997 10 16 0.00 0.00
6:53 am 06:53 Sunny 72 22.2 50 10 46 46 SW 6 9 29.47 998 10 16 0.00 0.00
7:53 am 07:53 Sunny 75 23.9 38 3.3 26 26 WSW 7 11 29.49 999 10 16 0.00 0.00
8:53 am 08:53 Sunny 80 26.7 29 -1.7 15 15 W 15 24 29.50 999 10 16 0.00 0.00
9:53 am 09:53 Sunny 85 29.4 28 -2.2 13 13 W 16 26 29.51 999 10 16 0.00 0.00
10:53 am 10:53 Sunny 90 32.2 24 -4.4 9 9 W 17 28 29.52 1000 10 16 0.00 0.00
11:53 am 11:53 Sunny 93 33.9 24 -4.4 8 8 W 18 30 29.52 1000 10 16 0.00 0.00
12:53 pm 12:53 Sunny 95 35 24 -4.4 8 8 W 18 30 29.52 1000 10 16 0.00 0.00
1:53 pm 13:53 Sunny 97 36.1 26 -3.3 8 8 W 18 30 29.49 999 10 16 0.00 0.00
2:53 pm 14:53 Sunny 98 36.7 27 -2.8 8 8 W 21 33 29.49 999 10 16 0.00 0.00
3:53 pm 15:53 Sunny 98 36.7 29 -1.7 9 9 WSW 22 35 29.48 998 10 16 0.00 0.00
4:53 pm 16:53 Sunny 97 36.1 28 -2.2 9 9 WSW 23 37 29.47 998 10 16 0.00 0.00
5:53 pm 17:53 Sunny 96 35.6 29 -1.7 9 9 SW 13 20 29.47 998 10 16 0.00 0.00
6:53 pm 18:53 Sunny 96 35.6 28 -2.2 9 9 WSW 15 24 29.47 998 10 16 0.00 0.00
7:53 pm 19:53 Sunny 94 34.4 28 -2.2 9 9 SW 15 24 29.47 998 10 16 0.00 0.00
8:53 pm 20:53 Clear 90 32.2 26 -3.3 10 10 SW 7 11 29.49 999 10 16 0.00 0.00
9:53 pm 21:53 Clear 87 30.6 25 -3.9 10 10 SSW 5 7 29.51 999 10 16 0.00 0.00
10:53 pm 22:53 Clear 83 28.3 25 -3.9 12 12 WSW 8 13 29.54 1000 10 16 0.00 0.00
11:53 pm 23:53 Clear 80 26.7 22 -5.6 11 11 SW 8 13 29.56 1001 10 16 0.00 0.00

Powered by AerisWeather